Tracking 25612 objects as of 19-May-2022
HD Live streaming from Space Station
objects crossing your sky now

COSMOS 2251 DEB

Track COSMOS 2251 DEB now!
10-day predictions


NORAD ID: 34469
Int'l Code: 1993-036TN
Perigee: 657.3 km
Apogee: 678.2 km
Inclination: 74.0 °
Period: 97.9 minutes
Semi major axis: 7038 km
RCS: 0.033 m2 (small)
Launch date: June 16, 1993
Source: Commonwealth of Independent States (former USSR) (CIS)
Launch site: PLESETSK MISSILE AND SPACE COMPLEX (PKMTR)

Note: This is SATELLITE DEBRIS
aabbcc
Your satellite tracking list
Your tracking list is empty




NASA's NSSDC Master Catalog

Two Line Element Set (TLE):
1 34469U 93036TN  22139.20647584  .00017470  00000-0  28956-2 0  9991
2 34469  74.0153 222.2655 0014870 302.6411  57.3324 14.70153593702505
Source of the keplerian elements: AFSPC